Regional Weather Roundup
Issued by NWS

Home | Current Version | Previous Version | Text Only | Print | Product List | Glossary On
Versions: 1 2 3 4 5 6 7 8 9 10 11 12 13 14 15 16 17 18 19 20 21 22 23 24 25 26 27 28 29 30 31 32 33 34 35 36 37 38 39 40 41 42 43 44 45 46 47 48 49 50
000
ASUS45 KREV 020610
RWRNV
NEVADA REGIONAL WEATHER ROUNDUP
NATIONAL WEATHER SERVICE RENO NV
1100 PM PDT FRI AUG 01 2014

NOTE: "FAIR" INDICATES FEW OR NO CLOUDS BELOW 12,000 FEET WITH NO
SIGNIFICANT WEATHER AND/OR OBSTRUCTIONS TO VISIBILITY.

NVZ001-003-004-020700-
WESTERN NEVADA

CITY           SKY/WX    TMP DP  RH WIND       PRES   REMARKS
RENO           PTCLDY    80  33  18 SW5       30.11R
6HR MIN TEMP:  80; 6HR MAX TEMP:  95;

CARSON CITY    FAIR      73  32  21 E6        30.14S
SLIDE MTN        N/A     55  32  41 W8          N/A
PYRAMID LAKE     N/A     84 N/A N/A E3          N/A
FALLON         PTCLDY    80  42  25 SE17      30.05S
6HR MIN TEMP:  79; 6HR MAX TEMP:  98;

LOVELOCK       MOCLDY    77  44  30 NW3       30.06R
6HR MIN TEMP:  76; 6HR MAX TEMP:  94;

HAWTHORNE      PTCLDY    75  54  46 CALM      30.11R
$$

NVZ002-CAZ072-073-020700-
NORTHERN AND CENTRAL SIERRA

CITY           SKY/WX    TMP DP  RH WIND       PRES   REMARKS
S. LAKE TAHOE  CLEAR     59  36  42 SW3       30.27F
6HR MIN TEMP:  59; 6HR MAX TEMP:  85;

TRUCKEE        CLEAR     54  32  43 CALM      30.26S
SQUAW VLY 8000 NOT AVBL
BLUE CANYON    CLEAR     72  33  24 CALM      30.22S
MAMMOTH LAKES  CLOUDY    61  34  36 N5        30.32S
BRIDGEPORT     FAIR      60  31  33 W5        30.29R
$$

NVZ030-031-036-020700-
NORTHERN NEVADA

CITY           SKY/WX    TMP DP  RH WIND       PRES   REMARKS
ELKO           MOCLDY    74  37  26 CALM      30.14F
6HR MIN TEMP:  71; 6HR MAX TEMP:  90;

WINNEMUCCA     LGT RAIN  75  47  36 S7        30.09R
6HR MIN TEMP:  75; 6HR MAX TEMP:  92; 6HR PCP: TRACE;

WENDOVER       MOCLDY    73  43  33 CALM      30.10F
$$

NVZ035-037-020700-
CENTRAL NEVADA

CITY           SKY/WX    TMP DP  RH WIND       PRES   REMARKS
ELY            CLOUDY    73  38  27 W8        30.28R
6HR MIN TEMP:  72; 6HR MAX TEMP:  87;

EUREKA           N/A     72  41  32 S10       30.28R
6HR MIN TEMP:  71; 6HR MAX TEMP:  79;

$$

NVZ013-014-020700-
SOUTH CENTRAL NEVADA

CITY           SKY/WX    TMP DP  RH WIND       PRES   REMARKS
TONOPAH        CLOUDY    71  49  45 VRB5      30.21F
6HR MIN TEMP:  70; 6HR MAX TEMP:  93; 6HR PCP: TRACE;

$$

NVZ017-020-022-020700-
SOUTHERN NEVADA

CITY           SKY/WX    TMP DP  RH WIND       PRES   REMARKS
LAS VEGAS      PTCLDY    96  51  21 S12       29.85S
6HR MIN TEMP:  96; 6HR MAX TEMP: 105;

N. LAS VEGAS   PTCLDY    96  50  20 S5        29.88R
6HR MIN TEMP:  96; 6HR MAX TEMP: 105;

NELLIS AFB     PTCLDY    96  54  23 S6        29.86S
6HR MIN TEMP:  96; 6HR MAX TEMP: 105;

HENDERSON      PTCLDY    92  53  26 S7        29.92S
6HR MIN TEMP:  92; 6HR MAX TEMP: 105;

MERCURY        PTCLDY    92  48  22 S14G24    29.96R
6HR MIN TEMP:  89; 6HR MAX TEMP: 103;

$$


USA.gov is the U.S. government's official web portal to all federal, state and local government web resources and services.